Location: Fairmont
(43.6520°N, 94.4610°W)
Time: 12:28:59
(UTC-05:00)

Cosmos-2242 - Visible Passes

Search period start: 20 April 2014 00:00
Search period end: 30 April 2014 00:00
Orbit: 597 x 625 km, 82.5° (Epoch: 19 April)

Date Brightness Start Highest point End Pass type
(mag) Time Alt. Az. Time Alt. Az. Time Alt. Az.
20 Apr 5.6 01:16:02 10° NNE 01:17:31 18° NNE 01:17:31 18° NNE visible
20 Apr 5.6 02:53:42 10° NNW 02:54:30 14° NW 02:54:30 14° NW visible
21 Apr 5.4 01:30:33 10° N 01:32:16 22° NNE 01:32:16 22° NNE visible
22 Apr 5.3 01:45:16 10° N 01:47:02 24° N 01:47:02 24° N visible
23 Apr 5.8 00:24:05 10° NE 00:24:48 12° NE 00:24:48 12° NE visible
23 Apr 5.3 02:00:11 10° NNW 02:01:48 22° NNW 02:01:48 22° NNW visible
24 Apr 5.5 00:37:59 10° NNE 00:39:34 17° NE 00:39:34 17° NE visible
24 Apr 5.4 02:15:18 10° NNW 02:16:33 17° NW 02:16:33 17° NW visible
25 Apr 5.2 00:52:22 10° N 00:54:20 23° NNE 00:54:20 23° NNE visible
25 Apr 5.7 02:30:44 10° NW 02:31:19 13° NW 02:31:19 13° NW visible
26 Apr 5.0 01:07:00 10° N 01:09:06 27° N 01:09:06 27° N visible
26 Apr 5.7 23:46:22 10° NE 23:46:54 11° NE 23:46:54 11° NE visible
27 Apr 5.0 01:21:49 10° NNW 01:23:53 27° NNW 01:23:53 27° NNW visible
27 Apr 5.4 23:59:53 10° NNE 00:01:40 17° NE 00:01:40 17° NE visible
28 Apr 5.2 01:36:50 10° NNW 01:38:39 22° NW 01:38:39 22° NW visible
29 Apr 5.0 00:14:07 10° N 00:16:26 24° NE 00:16:26 24° NE visible
29 Apr 5.5 01:52:07 10° NW 01:53:25 16° NW 01:53:25 16° NW visible
